Flag for Canada Weather past 2 weeks in Québec, Quebec, Canada

Now
46 °F

Passing clouds.


Feels Like: 38 °F
Forecast: N/A
Wind: 22 mph from Northeast

Location: Quebec Weather Station

Current Time: Oct 22, 2014 at 5:59:44 PM

Latest Report: Oct 22, 2014 at 5:00 PM


Visibility: 30 mi

Pressure: 30.34 "Hg

Humidity: 66%

Dew point: 36 °F

Location of QuébecLocation

Historic Weather in Québec — Graph

°F

Québec temperature yesterday

Maximum temperature yesterday: 46 °F (at 1:00 PM)
Minimum temperature yesterday: 34 °F (at 1:00 AM)
Average temperature yesterday: 41 °F

Past Weeks' High & Low Weather Summary

 TemperatureHumidityPressure
High68 °F (Oct 15, 10:00 AM)100% (Oct 7, 9:00 PM)30.39 "Hg (Oct 7, 9:00 PM)
Low30 °F (Oct 13, 7:00 AM)45% (Oct 13, 4:00 PM)29.43 "Hg (Oct 18, 5:00 PM)
Average48 °F80%29.90 "Hg
* Reported Oct 7 4:00 PM — Oct 22 4:00 PM, Québec, Weather by CustomWeather, © 2014

Note: Actual official high and low records may vary slightly from our data, if they occured in-between our weather recording intervals... More about our weather records

Advertising

Québec weather history for previous 24 hours

 ConditionsComfort  
Time TempWeatherWind HumidityBarometerVisibility
4:00 PM
Oct 22
50 °FPassing clouds.21 mph58%30.34 "Hg30 mi
3:00 PM52 °FSunny.13 mph50%30.33 "Hg30 mi
2:00 PM50 °FPassing clouds.17 mph58%30.34 "Hg30 mi
1:00 PM50 °FPassing clouds.16 mph62%30.37 "Hg30 mi
12:00 PM46 °FPartly sunny.15 mph66%30.39 "Hg30 mi
11:00 AM46 °FPartly sunny.14 mph62%30.39 "Hg30 mi
10:00 AM45 °FPartly sunny.16 mph66%30.39 "Hg30 mi
9:00 AM43 °FPartly sunny.14 mph71%30.38 "Hg30 mi
8:00 AM43 °FPassing clouds.21 mph66%30.36 "Hg30 mi
7:00 AM43 °FPassing clouds.18 mph66%30.34 "Hg30 mi
6:00 AM45 °FOvercast.18 mph57%30.33 "Hg15 mi
5:00 AM45 °FOvercast.14 mph61%30.31 "Hg15 mi
4:00 AM45 °FOvercast.14 mph57%30.29 "Hg15 mi
3:00 AM45 °FOvercast.16 mph57%30.29 "Hg15 mi
2:00 AM45 °FOvercast.17 mph61%30.29 "Hg15 mi
1:00 AM45 °FOvercast.18 mph57%30.29 "Hg15 mi
12:00 AM45 °FOvercast.15 mph57%30.29 "Hg15 mi
11:00 PM
Oct 21
43 °FPassing clouds.14 mph61%30.27 "Hg15 mi
10:00 PM43 °FPassing clouds.14 mph61%30.24 "Hg15 mi
9:00 PM45 °FPassing clouds.13 mph53%30.22 "Hg15 mi
8:00 PM45 °FPassing clouds.13 mph53%30.20 "Hg15 mi
7:00 PM45 °FPassing clouds.10 mph53%30.19 "Hg15 mi
6:00 PM45 °FBroken clouds.9 mph53%30.18 "Hg30 mi
5:00 PM46 °FPartly sunny.10 mph53%30.16 "Hg30 mi
Weather by CustomWeather, © 2014

See weather overviewHow to use our weather pages